SCP
0 0 0 0 0 0 0 0 0 0 0 0 0 0 0 0 0 0 0 0 0 0 0 0 0 0 0 0 0 0 0 0 0 0 0 0 0 0 0 0 0 0 0 0 0 0 0 0 0
0 0 0 0 0 0 0 0 0 0 0 0 0 0 0 0 0 0 0 0 0 0 0 0 0 0 0 0 0 0 0 0 0 0 0 0 0 0 0 0 0 0 0 0 0 0 0 0 0
0 0 0 0 0 0 0 0 0 0 0 0 0 0 0 0 0 0 0 0 0 0 0 0 0 0 0 0 0 0 0 0 0 0 0 0 0 0 0 0 0 0 0 0 0 0 0 0 0
0 0 0 0 0 0 0 0 0 0 0 0 0 0 0 0 0 0 0 0 0 0 0 0 0 0 0 0 0 0 0 0 0 0 0 0 0 0 0 0 0 0 0 0 0 0 0 0 0
0 0 0 0 0 0 0 0 0 0 0 0 0 0 0 0 0 0 0 0 0 0 0 0 0 0 0 0 0 0 0 0 0 0 0 0 0 0 0 0 0 0 0 0 0 0 0 0 0
0 0 0 0 0 0 0 0 0 0 0 0 0 0 0 0 0 0 0 0 0 0 0 0 0 0 0 0 0 0 0 0 0 0 0 0 0 0 0 0 0 0 0 0 0 0 0 0 0
0 0 0 0 0 0 0 0 0 0 0 0 0 0 0 0 0 0 0 0 0 0 0 0 0 0 0 0 0 0 0 0 0 0 0 0 0 0 0 0 0 0 0 0 0 0 0 0 0
0 0 0 0 0 0 0 0 0 0 0 0 0 0 0 0 0 0 0 0 0 0 0 0 0 0 0 0 0 0 0 0 0 0 0 0 0 0 0 0 0 0 0 0 0 0 0 0 0
0 0 0 0 0 0 0 0 0 0 0 0 0 0 0 0 0 0 0 0 0 0 0 0 0 0 0 0 0 0 0 0 0 0 0 0 0 0 0 0 0 0 0 0 0 0 0 0 0
0 0 0 0 0 0 0 0 0 0 0 0 0 0 0 0 0 0 0 0 0 0 0 0 0 0 0 0 0 0 0 0 0 0 0 0 0 0 0 0 0 0 0 0 0 0 0 0 0
0 0 0 0 0 0 0 0 0 0 0 0 0 0 0 0 0 0 0 0 0 0 0 0 0 0 0 0 0 0 0 0 0 0 0 0 0 0 0 0 0 0 0 0 0 0 0 0 0
0 0 0 0 0 0 0 0 0 0 0 0 0 0 0 0 0 0 0 0 0 0 0 0 0 0 0 0 0 0 0 0 0 0 0 0 0 0 0 0 0 0 0 0 0 0 0 0 0
0 0 0 0 0 0 0 0 0 0 0 0 0 0 0 0 0 0 0 0 0 0 0 0 0 0 0 0 0 0 0 0 0 0 0 0 0 0 0 0 0 0 0 0 0 0 0 0 0
0 0 0 0 0 0 0 0 0 0 0 0 0 0 0 0 0 0 0 0 0 0 0 0 0 0 0 0 0 0 0 0 0 0 0 0 0 0 0 0 0 0 0 0 0 0 0 0 0
0 0 0 0 0 0 0 0 0 0 0 0 0 0 0 0 0 0 0 0 0 0 0 0 0 0 0 0 0 0 0 0 0 0 0 0 0 0 0 0 0 0 0 0 0 0 0 0 0
0 0 0 0 0 0 0 0 0 0 0 0 0 0 0 0 0 0 0 0 0 0 0 0 0 0 0 0 0 0 0 0 0 0 0 0 0 0 0 0 0 0 0 0 0 0 0 0 0
0 0 0 0 0 0 0 0 0 0 0 0 0 0 0 0 0 0 0 0 0 0 0 0 0 0 0 0 0 0 0 0 0 0 0 0 0 0 0 0 0 0 0 0 0 0 0 0 0
0 0 0 0 0 0 0 0 0 0 0 0 0 0 0 0 0 0 0 0 0 0 0 0 0 0 0 0 0 0 0 0 0 0 0 0 0 0 0 0 0 0 0 0 0 0 0 0 0
0 0 0 0 0 0 0 0 0 0 0 0 0 0 0 0 0 0 0 0 0 0 0 0 0 0 0 0 0 0 0 0 0 0 0 0 0 0 0 0 0 0 0 0 0 0 0 0 0
0 0 0 0 0 0 0 0 0 0 0 0 0 0 0 0 0 0 0 0 0 0 0 0 0 0 0 0 0 0 0 0 0 0 0 0 0 0 0 0 0 0 0 0 0 0 0 0 0
0 0 0 0 0 0 0 0 0 0 0 0 0 0 0 0 0 0 0 0 0 0 0 0 0 0 0 0 0 0 0 0 0 0 0 0 0 0 0 0 0 0 0 0 0 0 0 0 0
0 0 0 0 0 0 0 0 0 0 0 0 0 0 0 0 0 0 0 0 0 0 0 0 0 0 0 0 0 0 0 0 0 0 0 0 0 0 0 0 0 0 0 0 0 0 0 0 0
0 0 0 0 0 0 0 0 0 0 0 0 0 0 0 0 0 0 0 0 0 0 0 0 0 0 0 0 0 0 0 0 0 0 0 0 0 0 0 0 0 0 0 0 0 0 0 0 0
0 0 0 0 0 0 0 0 0 0 0 0 0 0 0 0 0 0 0 0 0 0 0 0 0 0 0 0 0 0 0 0 0 0 0 0 0 0 0 0 0 0 0 0 0 0 0 0 0
0 0 0 0 0 0 0 0 0 0 0 0 0 0 0 0 0 0 0 0 0 0 0 0 0 0 0 0 0 0 0 0 0 0 0 0 0 0 0 0 0 0 0 0 0 0 0 0 0
0 0 0 0 0 0 0 0 0 0 0 0 0 0 0 0 0 0 0 0 0 0 0 0 0 0 0 0 0 0 0 0 0 0 0 0 0 0 0 0 0 0 0 0 0 0 0 0 0
0 0 0 0 0 0 0 0 0 0 0 0 0 0 0 0 0 0 0 0 0 0 0 0 0 0 0 0 0 0 0 0 0 0 0 0 0 0 0 0 0 0 0 0 0 0 0 0 0
0 0 0 0 0 0 0 0 0 0 0 0 0 0 0 0 0 0 0 0 0 0 0 0 0 0 0 0 0 0 0 0 0 0 0 0 0 0 0 0 0 0 0 0 0 0 0 0 0
0 0 0 0 0 0 0 0 0 0 0 0 0 0 0 0 0 0 0 0 0 0 0 0 0 0 0 0 0 0 0 0 0 0 0 0 0 0 0 0 0 0 0 0 0 0 0 0 0
0 0 0 0 0 0 0 0 0 0 0 0 0 0 0 0 0 0 0 0 0 0 0 0 0 0 0 0 0 0 0 0 0 0 0 0 0 0 0 0 0 0 0 0 0 0 0 0 0
Wind_Speed
8 6 3 1 2 3 2 3 1 2 2 2 3 5 5 3 1 1 0 3 4 3 2 4 5 6 7 7 7 9 10 10 10 10 10 10 10 10 10 10 10 10 10 10 10 10 10 10 11
6 5 2 1 4 3 3 2 1 1 3 2 4 5 5 3 2 3 2 2 4 4 2 3 5 6 7 7 8 9 10 10 9 10 10 10 10 9 9 9 9 9 10 10 9 9 9 10 10
6 4 0 2 2 1 1 1 1 2 2 2 4 4 3 2 2 2 2 4 4 3 1 3 6 6 7 8 8 8 9 8 9 9 10 10 9 9 8 8 8 9 9 9 9 9 9 9 9
3 0 2 3 2 1 2 1 2 3 2 4 3 4 3 2 1 3 5 6 5 2 1 2 6 7 7 8 8 7 7 7 7 8 8 9 8 8 8 8 7 7 8 8 8 8 8 8 9
1 1 3 3 2 2 0 0 1 2 2 3 3 4 3 4 4 7 7 5 4 2 2 0 3 7 8 8 7 6 6 6 6 7 7 7 7 7 7 7 7 6 7 7 7 8 8 8 8
1 2 4 2 2 2 1 1 2 4 3 3 3 3 2 2 4 6 5 4 4 3 2 2 3 6 7 7 6 6 6 5 5 6 6 6 6 5 5 5 5 5 5 6 6 7 7 8 8
2 3 2 1 1 1 0 1 3 3 3 2 3 4 1 1 3 5 5 5 4 3 3 2 3 3 5 5 5 5 5 5 5 5 5 5 5 4 3 3 3 4 4 4 5 5 7 7 8
2 3 1 0 1 1 0 2 2 3 2 2 3 4 3 2 5 6 6 5 4 3 3 2 3 3 2 2 3 4 4 4 4 4 4 4 4 3 2 1 2 2 3 3 4 4 5 6 7
2 3 0 3 4 2 1 2 2 3 4 2 2 2 4 8 8 7 5 4 2 1 2 2 2 2 2 2 1 2 3 3 3 3 4 3 2 2 1 1 1 1 1 2 3 3 4 4 5
3 2 4 4 4 3 2 2 2 3 3 2 3 5 8 9 8 7 5 4 2 1 0 1 1 2 2 1 2 2 2 2 2 2 2 2 2 2 2 3 2 1 1 1 1 2 2 2 1
3 3 2 2 4 4 3 2 2 5 1 3 5 7 9 8 7 6 5 4 3 2 1 1 1 1 2 2 2 2 2 2 2 2 2 2 2 2 2 2 3 3 3 2 2 1 1 2 2
2 3 3 2 3 4 4 3 3 2 3 3 7 9 9 9 7 7 6 4 2 2 1 1 1 2 1 2 2 2 1 1 2 2 2 2 1 2 2 1 2 2 2 2 2 2 2 2 2
2 2 1 1 3 3 5 4 3 1 2 7 8 8 7 7 6 4 3 3 3 3 2 2 2 1 1 2 1 2 1 1 1 1 2 2 1 1 1 2 2 2 2 2 2 2 2 2 2
1 0 2 1 2 3 5 2 3 1 5 7 7 7 7 6 6 4 3 3 2 3 2 2 2 2 2 2 1 1 1 1 2 2 2 2 1 1 1 1 2 2 1 1 1 2 2 1 1
2 2 3 2 2 2 5 2 1 4 7 6 6 6 5 4 4 5 5 4 4 3 3 3 3 3 2 2 1 1 2 2 1 1 1 2 2 1 1 1 1 1 1 1 1 2 2 1 1
3 3 2 2 1 2 5 2 3 6 8 6 5 5 5 3 3 4 4 4 4 3 3 2 3 3 3 2 2 2 2 2 1 1 2 2 2 2 2 1 1 1 1 1 1 1 1 1 1
3 1 1 3 0 2 3 3 3 6 8 7 6 5 5 4 3 3 3 4 3 3 3 3 2 3 2 2 2 2 2 2 1 1 1 2 2 1 1 1 1 1 1 1 1 2 1 1 1
2 1 2 3 1 3 2 3 2 5 7 7 6 5 5 5 5 4 3 3 3 3 3 3 2 2 3 3 2 2 2 2 1 1 1 1 1 1 1 1 1 1 1 2 1 2 2 1 1
4 3 3 3 2 3 2 2 3 5 7 6 5 5 5 5 4 3 4 4 4 3 3 3 3 2 3 2 2 1 1 1 1 1 1 1 2 2 2 1 1 1 1 1 1 1 2 2 1
3 2 2 2 1 2 1 2 2 5 7 8 8 7 6 4 3 4 4 4 4 4 3 3 3 3 3 2 2 1 1 1 0 1 1 1 1 1 1 2 1 1 1 2 2 1 1 1 1
3 5 4 3 2 3 1 3 2 2 3 4 5 5 5 7 6 6 5 5 5 4 5 4 3 3 2 3 2 2 2 2 2 1 1 1 1 1 2 2 1 1 1 1 1 1 2 1 1
5 5 6 4 3 1 1 2 5 3 3 5 5 5 6 5 6 6 6 6 6 5 4 3 3 3 2 3 3 3 2 1 1 0 0 1 2 1 1 1 1 1 1 1 1 1 1 2 1
5 2 4 3 4 1 2 1 7 1 4 7 7 7 7 6 7 7 8 7 6 5 5 4 3 2 2 3 3 3 2 1 1 1 1 1 2 1 1 1 1 1 1 1 1 2 1 1 1
4 6 6 5 5 0 2 3 7 4 6 5 7 7 7 7 7 6 5 5 4 4 4 4 4 3 3 3 3 4 3 2 2 1 1 1 1 1 1 1 1 1 1 1 1 1 1 1 1
4 6 4 4 3 4 2 3 9 6 5 6 8 8 7 7 6 6 6 6 5 5 5 4 4 3 3 3 3 3 3 3 2 1 1 0 0 1 1 1 1 0 0 0 1 1 1 1 1
4 7 7 5 4 4 1 5 7 4 3 3 5 7 6 6 6 7 7 7 6 6 5 5 5 4 3 3 3 2 2 2 1 1 1 1 1 0 0 1 1 0 0 0 1 1 0 1 1
6 3 5 7 2 1 4 6 7 2 1 2 4 6 7 7 7 7 7 7 7 7 6 6 6 4 4 3 3 2 2 2 1 1 1 0 0 0 1 1 1 1 1 1 1 1 0 0 0
4 8 6 5 4 2 4 4 5 4 3 3 4 6 6 6 6 6 6 6 6 5 5 5 5 5 4 3 3 3 2 2 1 1 1 1 1 1 1 1 1 1 1 1 1 1 0 0 0
3 4 5 5 4 5 3 7 6 7 7 7 6 6 6 6 6 5 5 5 5 5 5 5 4 4 3 3 3 3 2 2 2 1 1 1 1 1 1 1 1 1 1 1 0 0 0 0 1
4 5 7 5 4 4 3 8 4 4 5 6 5 5 4 4 4 4 4 4 5 5 4 4 4 4 3 3 3 3 3 3 2 1 1 1 1 1 1 1 1 1 1 1 0 1 1 1 1
Wind_Direction
154 145 147 159 49 43 356 319 335 39 37 30 71 83 95 85 111 166 329 130 129 141 167 163 154 146 136 131 129 128 130 128 129 134 135 136 139 142 147 150 152 153 156 157 156 155 153 151 151
151 156 185 60 67 46 330 324 43 72 138 128 74 68 66 57 65 101 115 146 134 144 159 166 156 148 143 136 132 128 128 128 129 132 138 138 138 142 148 152 154 156 160 162 163 163 162 159 159
166 192 68 56 72 136 276 312 114 87 100 69 62 57 70 72 104 139 166 141 119 116 122 170 159 155 149 140 135 130 129 129 130 133 138 139 141 143 147 152 156 160 163 165 167 168 170 168 167
166 140 48 56 34 258 218 247 132 115 66 51 82 63 58 37 121 140 130 124 113 96 81 167 159 155 144 138 136 133 130 129 130 133 138 141 144 147 151 154 160 165 168 170 172 172 172 173 172
131 86 54 39 356 336 9 208 125 87 79 59 82 83 36 8 79 113 124 122 115 93 47 64 143 152 143 136 135 133 129 130 131 132 133 137 141 143 147 155 163 168 170 173 176 178 176 178 179
73 72 70 42 351 348 22 38 78 79 86 80 85 95 44 45 96 117 117 107 104 94 54 33 105 138 141 138 135 134 130 129 132 132 129 126 126 133 141 148 158 166 172 178 182 184 183 183 182
96 79 92 123 359 342 120 80 91 91 83 95 103 96 67 62 99 110 102 91 82 74 61 32 50 100 131 135 135 134 129 124 125 124 122 118 115 119 126 136 150 165 169 176 186 191 191 187 183
143 92 55 97 167 259 120 94 89 90 94 101 98 126 180 170 115 99 87 80 74 62 49 37 35 49 68 92 123 126 123 121 113 110 110 108 115 118 114 126 152 165 169 187 202 202 195 193 191
123 71 189 210 186 212 126 94 70 71 95 82 80 137 150 127 119 106 94 80 76 76 33 34 32 39 51 65 99 102 107 98 89 84 87 78 55 45 39 62 134 182 204 216 217 210 196 187 191
109 136 226 206 178 166 135 120 129 90 79 61 60 78 113 124 131 132 133 139 154 198 286 33 29 29 42 54 51 42 51 52 56 54 53 56 53 42 35 8 351 341 344 304 223 193 179 162 155
160 201 233 212 173 146 138 116 99 120 145 194 157 142 134 134 140 146 153 161 181 196 182 71 65 52 60 57 57 49 43 44 46 49 52 57 53 35 28 12 354 355 5 11 23 66 108 115 127
166 247 214 204 149 141 142 130 102 150 207 156 142 143 144 149 158 167 171 175 164 143 158 103 103 90 77 74 62 62 52 46 46 41 52 68 61 45 34 19 3 11 15 30 45 74 91 99 112
189 271 309 147 107 125 110 121 132 178 108 113 121 129 144 152 160 165 163 162 156 160 164 154 139 122 98 85 69 76 59 54 55 47 47 71 81 63 41 22 19 25 32 44 57 75 88 92 93
203 343 343 17 98 118 117 112 111 177 120 120 128 141 154 159 161 154 145 149 161 169 165 153 144 142 120 109 101 79 73 68 62 49 42 68 77 79 61 34 26 27 36 49 70 83 88 90 96
91 49 13 20 90 125 108 48 213 163 134 135 144 150 153 161 160 165 167 166 170 167 159 153 150 139 132 128 125 93 78 73 65 49 43 64 73 80 75 54 27 14 31 57 66 68 79 97 97
48 57 18 313 119 126 113 242 240 158 145 150 157 155 152 162 164 168 165 161 162 156 148 150 148 139 144 135 119 92 79 74 55 45 43 47 51 60 68 53 18 11 38 57 76 69 78 73 86
33 58 277 303 331 130 137 219 228 162 156 165 169 163 161 163 170 176 166 161 155 154 144 134 129 138 141 123 103 90 79 72 56 51 48 36 40 55 78 52 16 35 54 52 73 77 97 100 98
220 220 251 253 238 141 171 228 197 172 171 178 174 167 172 183 195 180 165 158 142 137 134 131 122 118 117 104 89 76 68 57 54 51 35 42 41 53 77 72 29 65 75 58 59 85 81 91 101
165 177 244 258 209 141 195 229 209 186 178 183 183 178 189 196 188 167 158 151 140 139 138 138 133 129 121 107 110 102 73 38 43 39 33 46 48 47 61 48 41 56 81 78 78 93 81 59 74
163 175 247 313 60 135 175 281 237 191 197 192 188 187 192 187 170 168 160 153 158 163 161 153 154 146 143 140 134 135 131 119 108 33 37 38 53 49 60 64 57 59 78 62 58 81 95 54 53
215 194 206 185 59 45 58 328 278 225 199 192 188 184 186 188 187 183 175 177 174 179 181 174 170 157 151 137 111 92 69 46 39 28 20 10 43 61 61 70 74 62 78 87 69 87 122 127 56
247 220 183 158 122 282 105 278 279 230 215 211 202 191 192 189 186 188 185 185 188 190 177 161 159 153 145 136 138 141 140 155 203 169 44 10 28 48 61 75 81 80 80 80 73 84 107 132 141
219 127 119 119 126 66 19 192 285 274 236 230 213 199 195 188 190 193 194 191 190 178 167 163 153 148 144 146 154 145 147 163 123 81 60 28 15 19 31 80 86 81 75 80 70 68 74 112 137
135 75 63 57 73 352 227 184 273 236 227 226 208 200 192 186 187 190 185 171 173 164 161 159 153 161 160 154 153 158 163 154 129 91 61 12 8 359 355 69 80 81 75 75 86 98 94 97 109
104 94 42 4 9 257 225 196 251 249 232 216 205 193 185 183 177 174 169 167 170 168 169 161 157 174 173 160 164 174 172 164 170 179 185 169 5 348 344 26 54 72 167 115 109 105 101 123 132
166 140 155 191 222 272 295 236 256 268 263 208 181 174 171 176 175 175 175 173 176 175 167 162 168 180 174 168 177 174 165 167 171 170 168 182 208 242 31 78 71 27 51 75 93 94 140 94 136
143 166 159 130 136 278 276 279 297 319 358 133 157 167 178 180 180 178 175 176 176 176 175 175 175 179 179 181 171 155 148 142 140 128 120 122 285 106 71 79 80 57 63 68 93 83 26 86 94
133 141 107 118 147 242 284 272 253 253 237 201 184 188 187 177 179 178 178 182 177 173 169 168 171 176 176 168 171 155 139 136 132 116 107 87 42 44 57 48 59 55 54 58 95 84 25 73 299
114 105 109 115 150 161 240 267 232 214 206 198 200 194 186 182 181 176 173 172 161 151 153 159 161 158 158 161 146 128 121 117 115 117 107 101 88 78 59 51 53 44 33 36 81 270 157 211 289
157 163 149 150 199 175 184 263 281 204 197 188 190 188 177 170 161 155 153 149 149 154 158 157 159 160 159 147 134 129 120 111 108 104 94 93 92 81 74 52 40 23 14 360 315 262 267 241 261